Temperature
13 14 14 14 14 15 15 15 15 15 14 14 13 14 14 14 14 14 14 14 14 14 15 15 15 15 15 16 15 15 15 15 15 15 15 15 15 15
13 14 14 14 14 14 14 14 14 14 14 13 13 13 13 13 13 13 13 13 14 14 14 14 14 14 15 15 15 15 15 15 15 15 15 15 15 15
13 13 13 14 14 14 14 14 14 14 14 13 12 12 13 12 13 13 13 13 13 13 13 13 13 14 14 14 14 14 14 14 14 14 14 14 14 14
13 13 13 13 13 14 14 14 14 14 13 13 12 12 12 12 12 12 12 12 12 12 13 13 13 13 13 13 13 13 13 13 13 13 13 13 14 14
13 13 13 13 13 13 13 13 13 13 13 12 12 11 11 12 12 12 11 11 11 12 12 12 12 12 12 12 12 12 13 13 13 13 13 13 13 13
13 13 13 13 13 13 13 13 13 12 12 12 11 11 11 11 11 12 11 11 11 11 11 12 12 12 12 12 12 12 12 12 12 12 13 13 13 13
12 12 12 13 13 13 12 12 12 12 12 12 12 12 11 11 12 12 12 11 11 11 11 11 11 11 11 11 11 11 12 12 12 12 12 12 12 12
12 12 12 12 12 12 12 12 12 12 12 12 12 12 11 11 12 12 12 12 11 11 11 11 10 10 10 10 11 11 11 11 11 11 11 12 12 12
11 11 11 11 11 12 11 11 11 11 12 12 12 11 11 11 11 12 12 12 11 11 11 11 10 10 9 10 10 10 10 10 11 11 11 11 11 11
11 11 11 11 11 11 11 11 11 11 11 11 11 11 11 11 11 11 11 11 11 10 11 11 10 10 9 9 9 9 9 10 10 10 10 11 11 11
10 11 11 11 11 11 11 11 11 11 11 11 11 11 11 11 10 11 11 11 11 10 11 11 11 10 10 9 9 9 9 9 9 9 10 10 10 10
10 10 10 10 10 10 11 11 10 10 10 10 10 10 10 10 10 11 11 12 12 11 10 11 11 11 10 9 9 9 8 8 8 8 9 9 9 9
10 10 10 10 10 10 10 10 10 10 10 10 10 9 9 9 10 10 10 11 11 10 10 10 11 11 11 10 9 9 8 8 8 8 8 8 8 8
10 10 10 10 10 10 10 10 10 10 10 10 10 10 10 9 9 9 9 9 9 8 8 9 9 10 10 10 10 9 8 8 8 7 7 7 7 7
10 10 10 10 10 10 10 10 10 10 10 10 10 10 9 9 8 8 8 8 8 8 8 8 9 9 9 9 9 9 9 8 7 7 7 7 7 7
10 10 10 10 10 10 10 10 10 10 10 10 10 9 9 8 9 9 9 9 9 8 7 7 7 8 9 8 9 9 8 8 7 7 7 7 6 6
10 9 9 9 9 9 9 10 10 10 10 10 9 9 9 9 9 9 9 9 9 9 8 8 7 7 7 8 8 8 8 8 7 7 7 7 7 6
10 10 10 10 10 10 10 10 10 10 10 9 9 9 9 9 9 9 9 10 9 9 9 9 9 9 8 7 7 7 7 7 7 7 7 7 7 6
10 10 10 10 10 10 10 10 10 10 9 10 10 9 9 9 9 9 9 9 9 9 9 9 9 9 10 10 7 7 7 6 7 7 7 7 7 6
11 11 10 10 10 10 10 10 10 9 9 9 9 9 9 9 9 9 9 9 9 9 9 8 8 8 8 8 8 7 6 6 6 6 7 7 7 6
11 11 11 11 11 10 10 10 10 9 9 9 9 9 9 9 9 10 9 8 9 9 9 9 8 7 7 7 9 8 7 6 6 5 5 6 6 7
11 11 11 11 11 10 10 10 10 10 9 9 9 9 9 10 9 9 9 9 9 9 9 8 7 7 8 8 9 8 8 7 6 6 6 5 5 5
11 11 11 11 11 10 10 10 10 10 10 10 10 9 9 9 9 9 9 9 9 9 9 9 8 8 8 8 8 8 8 7 7 7 6 6 5 5
Wind_Speed
14 14 12 11 11 10 10 9 8 7 4 2 2 3 2 4 5 7 9 12 13 13 14 14 14 14 13 12 11 10 10 9 8 8 7 8 9 11
11 12 11 9 9 9 8 7 7 6 3 2 2 2 4 6 8 10 12 16 16 15 16 16 17 17 17 17 16 15 14 13 12 11 10 8 6 4
12 11 11 10 8 7 6 5 5 5 6 4 3 4 5 7 7 8 10 10 13 17 17 17 18 18 18 17 16 15 14 13 12 11 10 8 7 4
10 10 9 7 7 5 5 5 4 5 9 9 5 4 5 7 8 8 9 11 12 17 18 18 19 19 18 17 16 16 14 13 12 11 9 8 7 5
8 7 7 6 6 5 5 6 6 8 8 10 8 5 5 7 9 10 10 9 12 15 18 18 19 19 18 17 16 15 14 13 12 10 9 7 6 5
4 4 4 5 6 6 7 8 9 10 10 9 9 7 7 7 7 9 9 8 9 10 11 13 17 18 18 16 15 14 13 11 10 9 8 6 5 4
1 1 2 5 6 6 7 9 11 10 9 9 9 8 8 7 7 7 9 9 8 7 8 8 9 9 11 14 15 14 13 12 10 9 8 6 6 6
3 5 7 8 11 13 12 10 8 10 10 9 8 9 8 7 7 7 9 8 7 5 7 8 8 9 10 12 13 14 13 13 12 11 10 8 7 8
5 6 7 8 11 12 14 14 12 10 7 7 11 10 9 8 8 7 7 8 8 6 6 8 8 9 10 13 14 14 14 13 13 13 12 11 10 10
6 8 9 9 10 12 13 13 11 9 7 9 11 10 10 8 7 9 10 10 8 5 4 7 7 8 9 10 12 13 13 13 13 14 15 15 15 13
7 8 10 11 11 12 14 14 13 11 14 17 15 13 13 9 4 7 8 8 8 7 4 5 6 7 7 7 9 11 11 10 11 13 16 18 19 14
8 8 10 12 11 10 13 14 13 12 13 13 12 11 11 8 5 3 4 6 8 7 4 3 4 4 5 6 6 5 6 7 8 11 14 16 19 12
10 10 9 10 9 6 8 11 13 13 12 12 11 10 9 8 8 8 8 6 6 7 5 2 4 3 3 4 5 6 6 7 6 6 10 11 13 12
11 10 10 11 9 7 8 13 13 11 10 9 9 9 9 9 9 10 11 11 10 9 7 5 6 4 4 5 5 5 6 7 7 7 8 7 7 8
9 13 15 15 13 10 13 13 11 9 9 9 9 9 9 10 9 9 10 10 10 9 9 7 6 5 5 5 5 5 5 6 7 7 6 7 8 8
12 14 14 11 10 12 12 10 8 8 8 9 9 9 9 8 8 8 8 8 8 9 8 8 7 6 5 5 5 6 6 6 7 7 7 5 7 8
15 13 12 12 12 12 11 9 9 9 8 9 9 9 9 8 7 7 6 6 7 7 7 6 6 6 7 6 5 6 5 5 6 7 6 6 6 7
17 14 14 13 13 13 12 11 10 10 9 10 9 9 9 8 8 7 6 6 6 6 5 4 3 5 6 6 6 6 6 6 6 5 6 7 6 7
14 14 13 13 13 12 12 11 11 10 9 9 9 9 8 8 8 7 6 6 6 6 5 4 3 2 1 3 4 3 6 6 7 7 7 7 7 7
14 14 14 13 13 12 12 11 11 11 10 9 9 9 8 8 8 7 6 6 6 5 5 4 3 3 4 4 3 3 4 6 7 8 8 8 6 2
14 14 14 13 13 12 12 11 12 11 10 10 9 9 8 8 8 7 7 5 3 4 4 4 4 1 3 3 2 2 3 4 0 4 7 8 9 7
14 14 14 14 13 13 12 12 12 11 11 10 10 9 8 8 8 8 8 7 5 4 4 5 4 3 2 2 3 3 3 2 5 8 4 2 7 8
15 14 14 14 13 13 12 13 13 12 11 10 10 9 9 8 8 8 7 6 5 5 4 3 3 3 1 2 4 4 4 5 5 3 4 10 9 10
Wind_Direction
261 257 252 251 248 246 243 239 233 229 213 148 102 45 67 91 95 96 93 85 85 85 85 83 80 78 77 82 88 94 104 115 128 141 160 182 195 206
261 257 253 249 246 240 236 230 227 220 180 113 99 95 95 97 93 97 95 88 79 81 83 84 84 81 78 79 81 82 86 91 95 98 100 100 107 129
262 255 252 246 237 227 217 211 205 184 145 111 96 97 102 107 106 105 103 94 84 80 84 85 85 83 81 79 79 80 81 83 84 86 87 87 84 79
262 251 245 233 220 214 193 182 163 147 138 130 119 109 105 107 107 106 101 95 92 84 85 85 84 83 81 79 78 77 77 77 78 78 77 75 71 61
265 247 234 216 202 184 167 149 133 126 126 130 126 125 123 122 114 103 98 101 100 100 93 88 87 85 81 78 77 75 74 73 71 69 65 60 51 36
277 249 224 201 180 159 145 135 128 126 127 130 132 132 126 130 129 122 113 103 101 101 95 101 101 94 86 78 73 71 68 66 63 60 54 43 25 1
46 104 113 108 110 121 133 135 136 136 138 137 136 136 137 147 137 128 118 115 105 112 118 119 114 100 92 81 71 65 64 61 55 48 38 23 1 339
112 101 99 102 101 95 97 103 122 141 143 142 141 135 135 135 132 140 143 135 116 106 111 105 99 90 78 72 65 64 62 57 50 41 30 14 354 335
122 116 107 109 115 114 102 92 81 77 107 131 131 131 130 131 139 128 102 101 97 116 123 112 106 99 93 80 75 70 64 57 49 40 28 13 356 339
119 118 117 119 118 122 120 112 103 87 93 105 110 109 109 108 107 108 113 115 112 101 120 122 118 112 106 95 91 81 71 62 54 43 31 18 1 340
122 122 124 124 122 125 123 119 112 98 73 74 78 83 70 59 80 143 153 141 122 107 100 120 125 122 111 107 115 118 99 82 68 54 40 25 5 346
129 125 125 128 134 139 134 130 125 122 118 110 103 111 106 92 47 88 138 135 130 111 81 99 124 146 126 97 77 80 88 106 106 82 57 36 14 12
149 146 136 128 134 142 148 137 134 134 132 129 124 120 115 110 98 74 51 65 92 96 92 95 102 106 98 104 78 56 44 35 40 77 78 61 38 26
157 150 139 138 137 139 133 127 140 152 144 139 132 126 119 108 95 85 75 71 71 78 59 59 76 57 80 84 69 51 52 39 26 24 31 54 57 59
143 123 132 138 134 124 128 143 163 160 147 141 133 123 113 110 114 111 105 102 95 85 75 55 74 76 66 67 59 43 34 40 30 21 23 29 25 20
127 125 133 146 134 124 145 165 170 152 148 138 130 127 130 140 142 137 135 133 120 107 92 76 60 52 69 63 51 45 33 27 24 17 3 23 30 26
146 148 151 153 152 155 159 157 149 147 146 140 140 144 144 140 134 127 126 128 121 121 125 127 120 96 66 33 41 32 23 25 26 9 346 10 29 26
158 159 161 163 161 160 159 157 157 154 151 149 151 149 145 141 138 139 140 127 118 109 103 106 141 163 156 103 37 15 12 9 4 0 350 355 9 20
170 163 165 164 162 160 160 159 155 149 152 155 154 151 148 146 145 144 138 132 123 115 106 91 63 30 54 99 113 51 8 356 348 352 352 346 351 6
176 167 166 164 162 161 159 156 150 152 161 159 156 155 155 153 151 151 145 140 134 131 126 111 76 44 32 22 22 90 100 6 355 349 345 337 340 8
178 170 168 166 165 163 159 157 156 160 163 163 159 161 162 161 159 156 137 126 160 144 134 111 84 282 274 276 291 42 77 133 286 332 339 339 342 341
179 172 171 169 167 166 163 164 163 162 164 173 164 170 172 170 165 164 157 167 172 148 134 125 155 219 256 331 335 346 345 320 209 201 232 313 343 339
180 175 172 173 172 170 170 171 170 168 173 176 169 175 177 175 174 174 174 179 171 164 175 171 175 199 257 296 309 324 331 317 318 283 226 186 202 228
Height
1442 1442 1441 1441 1442 1442 1443 1444 1446 1446 1448 1449 1449 1450 1451 1452 1453 1454 1454 1455 1456 1457 1458 1460 1461 1463 1464 1466 1468 1471 1473 1476 1479 1482 1485 1489 1492 1496
1437 1436 1436 1435 1436 1437 1438 1439 1440 1442 1444 1446 1447 1449 1450 1451 1452 1453 1454 1455 1456 1457 1458 1459 1460 1461 1463 1465 1467 1469 1471 1472 1475 1477 1480 1484 1487 1490
1432 1431 1431 1431 1431 1432 1433 1435 1436 1439 1441 1444 1446 1448 1450 1451 1452 1454 1455 1456 1457 1458 1459 1460 1461 1462 1463 1465 1467 1468 1470 1472 1473 1475 1477 1480 1482 1485
1427 1427 1427 1427 1428 1429 1430 1432 1434 1436 1439 1441 1445 1448 1450 1452 1453 1455 1457 1458 1458 1459 1460 1461 1462 1463 1464 1466 1467 1468 1470 1471 1473 1474 1476 1478 1480 1482
1424 1423 1423 1424 1425 1427 1429 1431 1432 1435 1438 1441 1445 1448 1450 1453 1455 1457 1459 1460 1461 1462 1462 1463 1464 1465 1466 1467 1468 1469 1470 1471 1472 1473 1474 1475 1477 1478
1421 1420 1421 1423 1424 1426 1428 1430 1432 1435 1438 1442 1446 1449 1452 1455 1457 1459 1461 1462 1464 1465 1465 1466 1467 1467 1468 1468 1469 1470 1471 1471 1472 1472 1473 1474 1475 1476
1419 1418 1419 1421 1423 1426 1428 1430 1433 1436 1440 1443 1447 1450 1453 1456 1458 1461 1462 1464 1465 1467 1468 1469 1469 1470 1470 1470 1470 1470 1471 1471 1472 1472 1472 1473 1473 1473
1418 1418 1419 1420 1423 1426 1429 1432 1435 1438 1441 1444 1448 1451 1454 1457 1459 1462 1464 1465 1467 1469 1470 1471 1472 1472 1471 1471 1471 1471 1472 1471 1471 1471 1471 1471 1471 1470
1419 1419 1420 1421 1423 1427 1430 1434 1437 1441 1444 1447 1449 1452 1454 1457 1460 1462 1464 1465 1467 1469 1471 1472 1473 1473 1473 1472 1472 1472 1472 1471 1471 1470 1470 1469 1468 1467
1419 1420 1422 1424 1426 1429 1432 1436 1440 1443 1447 1449 1451 1453 1456 1458 1460 1462 1463 1465 1468 1470 1472 1473 1474 1475 1475 1474 1474 1473 1472 1471 1470 1469 1468 1467 1466 1464
1420 1422 1424 1427 1429 1432 1435 1438 1442 1446 1449 1451 1453 1455 1457 1459 1461 1464 1466 1468 1469 1471 1472 1474 1475 1476 1476 1476 1475 1473 1472 1471 1469 1468 1466 1465 1463 1462
1421 1424 1427 1429 1433 1436 1439 1442 1445 1448 1451 1453 1455 1457 1459 1461 1462 1465 1467 1468 1469 1471 1472 1473 1474 1475 1476 1477 1476 1475 1474 1471 1469 1467 1465 1463 1461 1460
1423 1425 1428 1432 1436 1439 1442 1445 1447 1450 1453 1455 1458 1460 1461 1463 1464 1465 1466 1468 1469 1471 1472 1473 1474 1475 1475 1476 1476 1476 1474 1473 1471 1468 1465 1462 1460 1458
1423 1427 1430 1434 1437 1441 1444 1446 1449 1452 1455 1457 1460 1462 1463 1465 1465 1466 1466 1467 1468 1470 1471 1473 1474 1474 1475 1476 1476 1476 1474 1472 1471 1469 1466 1463 1460 1457
1423 1427 1430 1435 1438 1442 1444 1447 1451 1454 1456 1458 1460 1462 1464 1465 1467 1467 1468 1469 1471 1472 1472 1473 1475 1476 1476 1476 1476 1476 1475 1473 1471 1469 1467 1464 1461 1458
1422 1426 1431 1435 1439 1442 1445 1448 1452 1455 1457 1459 1461 1463 1465 1467 1469 1470 1471 1473 1473 1474 1474 1474 1474 1476 1477 1476 1476 1476 1475 1474 1472 1469 1467 1465 1462 1459
1421 1426 1431 1435 1439 1442 1446 1449 1452 1454 1457 1459 1462 1464 1466 1468 1470 1471 1472 1474 1475 1475 1476 1476 1476 1476 1475 1476 1477 1476 1475 1474 1472 1469 1467 1466 1463 1459
1421 1426 1430 1435 1438 1442 1445 1448 1451 1454 1457 1460 1462 1465 1467 1469 1470 1472 1473 1474 1475 1476 1477 1477 1477 1477 1477 1476 1476 1476 1475 1473 1472 1469 1467 1465 1463 1460
1421 1425 1429 1433 1437 1441 1444 1448 1451 1454 1457 1460 1463 1465 1467 1469 1471 1472 1474 1475 1476 1476 1477 1477 1477 1477 1477 1476 1475 1475 1474 1473 1471 1469 1467 1465 1462 1459
1420 1424 1428 1432 1436 1440 1443 1447 1450 1454 1457 1460 1463 1465 1467 1469 1471 1473 1474 1475 1476 1477 1477 1478 1478 1477 1477 1477 1477 1475 1472 1472 1470 1468 1466 1464 1461 1458
1418 1423 1427 1431 1435 1439 1443 1446 1450 1453 1457 1460 1462 1465 1467 1469 1471 1473 1474 1474 1476 1477 1477 1478 1476 1475 1476 1476 1476 1475 1473 1470 1468 1467 1464 1463 1460 1458
1416 1421 1426 1430 1434 1438 1442 1446 1449 1453 1456 1459 1462 1464 1467 1469 1471 1472 1474 1475 1476 1477 1477 1477 1475 1476 1476 1476 1475 1473 1472 1470 1467 1464 1462 1461 1460 1457
1414 1419 1424 1428 1433 1437 1441 1445 1448 1452 1455 1458 1461 1463 1466 1468 1470 1472 1473 1474 1475 1476 1476 1476 1476 1476 1475 1475 1473 1472 1470 1468 1467 1464 1461 1458 1457 1455